ACA136 CYYC-CYYZ

Flight info

Callsign ACA136
Flight time 3h 17m
Altitude 35000
Route LOMLO Q961 DAPOP DCT UDBOX DCT AGLIN DCT OTNIK BOXUM7
Aircraft A321/M-SDE3FGHIRWY/LB1

Departure

Time 2026-05-05 20:39
Airport Calgary International Airport (CYYC)

Arrival

Time 2026-05-05 23:57
Airport Toronto Pearson International Airport (CYYZ)
Time Latitude Longitude Altitude Speed Heading
2026-05-05 18:31 51.12910 -114.00937 3560 ft 0 kts 95°
2026-05-05 20:25 51.12910 -114.00946 3559 ft 4 kts 95°
2026-05-05 20:25 51.12912 -114.00985 3555 ft 1 kts 95°
2026-05-05 20:26 51.12912 -114.01020 3559 ft 4 kts 63°
2026-05-05 20:26 51.12896 -114.01046 3555 ft 2 kts 24°
2026-05-05 20:26 51.12874 -114.01065 3554 ft 4 kts 38°
2026-05-05 20:26 51.12855 -114.01088 3557 ft 4 kts 25°
2026-05-05 20:27 51.12831 -114.01097 3558 ft 4 kts 345°
2026-05-05 20:27 51.12809 -114.01077 3558 ft 4 kts 312°
2026-05-05 20:27 51.12792 -114.01045 3556 ft 2 kts 309°
2026-05-05 20:27 51.12791 -114.01043 3556 ft 0 kts 310°
2026-05-05 20:29 51.12795 -114.01050 3559 ft 4 kts 310°
2026-05-05 20:30 51.12815 -114.01105 3559 ft 7 kts 287°
2026-05-05 20:30 51.12805 -114.01170 3558 ft 7 kts 234°
2026-05-05 20:30 51.12769 -114.01227 3559 ft 8 kts 221°
2026-05-05 20:30 51.12711 -114.01308 3559 ft 13 kts 221°
2026-05-05 20:31 51.12642 -114.01382 3558 ft 12 kts 179°
2026-05-05 20:31 51.12603 -114.01273 3559 ft 13 kts 92°
2026-05-05 20:31 51.12608 -114.01124 3559 ft 14 kts 85°
2026-05-05 20:31 51.12613 -114.00958 3559 ft 16 kts 89°
2026-05-05 20:32 51.12614 -114.00774 3559 ft 17 kts 90°
2026-05-05 20:32 51.12614 -114.00574 3559 ft 19 kts 90°
2026-05-05 20:32 51.12613 -114.00357 3559 ft 20 kts 90°
2026-05-05 20:32 51.12613 -114.00124 3559 ft 22 kts 90°
2026-05-05 20:33 51.12614 -113.99875 3559 ft 23 kts 90°
2026-05-05 20:33 51.12613 -113.99625 3560 ft 18 kts 90°
2026-05-05 20:33 51.12611 -113.99489 3560 ft 10 kts 101°
2026-05-05 20:33 51.12557 -113.99446 3558 ft 9 kts 178°
2026-05-05 20:34 51.12489 -113.99445 3560 ft 10 kts 180°
2026-05-05 20:34 51.12404 -113.99446 3560 ft 16 kts 180°
2026-05-05 20:34 51.12287 -113.99445 3560 ft 17 kts 181°
2026-05-05 20:34 51.12167 -113.99446 3558 ft 17 kts 179°
2026-05-05 20:35 51.12044 -113.99445 3560 ft 18 kts 179°
2026-05-05 20:35 51.11920 -113.99441 3559 ft 18 kts 180°
2026-05-05 20:35 51.11796 -113.99443 3557 ft 18 kts 181°
2026-05-05 20:35 51.11670 -113.99447 3560 ft 18 kts 180°
2026-05-05 20:36 51.11545 -113.99448 3560 ft 18 kts 181°
2026-05-05 20:36 51.11421 -113.99447 3560 ft 18 kts 179°
2026-05-05 20:36 51.11298 -113.99448 3560 ft 17 kts 180°
2026-05-05 20:36 51.11184 -113.99448 3560 ft 15 kts 180°
2026-05-05 20:37 51.11087 -113.99447 3560 ft 11 kts 178°
2026-05-05 20:37 51.11036 -113.99395 3560 ft 8 kts 114°
2026-05-05 20:37 51.11034 -113.99320 3560 ft 6 kts 90°
2026-05-05 20:37 51.11033 -113.99261 3561 ft 6 kts 91°
2026-05-05 20:38 51.11034 -113.99139 3563 ft 14 kts 89°
2026-05-05 20:38 51.11037 -113.99037 3564 ft 4 kts 71°
2026-05-05 20:38 51.11056 -113.99034 3559 ft 3 kts 353°
2026-05-05 20:38 51.11107 -113.99035 3562 ft 16 kts
2026-05-05 20:39 51.11450 -113.99036 3563 ft 82 kts
2026-05-05 20:39 51.12215 -113.99034 3563 ft 135 kts
2026-05-05 20:39 51.13306 -113.99031 3565 ft 177 kts
2026-05-05 20:39 51.14538 -113.99020 4220 ft 174 kts
2026-05-05 20:40 51.15760 -113.99083 4958 ft 177 kts 358°
2026-05-05 20:40 51.17047 -113.99171 5152 ft 195 kts 358°
2026-05-05 20:40 51.18459 -113.99291 5342 ft 211 kts 357°
2026-05-05 20:40 51.19993 -113.99416 5452 ft 234 kts 358°
2026-05-05 20:41 51.21655 -113.99493 6068 ft 237 kts 359°
2026-05-05 20:41 51.23284 -113.99561 6912 ft 235 kts
2026-05-05 20:41 51.24876 -113.98900 7492 ft 243 kts 28°
2026-05-05 20:41 51.26157 -113.97019 7825 ft 265 kts 57°
2026-05-05 20:42 51.26621 -113.94162 8339 ft 279 kts 88°
2026-05-05 20:42 51.26377 -113.91055 9042 ft 285 kts 96°
2026-05-05 20:42 51.26089 -113.87880 9736 ft 289 kts 95°
2026-05-05 20:42 51.25818 -113.84715 10331 ft 297 kts 95°
2026-05-05 20:43 51.25539 -113.81324 10482 ft 320 kts 95°
2026-05-05 20:43 51.25244 -113.77687 10644 ft 340 kts 95°
2026-05-05 20:43 51.24932 -113.73898 11120 ft 348 kts 94°
2026-05-05 20:43 51.24610 -113.70046 11725 ft 352 kts 94°
2026-05-05 20:44 51.24281 -113.66152 12354 ft 356 kts 94°
2026-05-05 20:44 51.23946 -113.62212 12977 ft 360 kts 93°
2026-05-05 20:44 51.23608 -113.58228 13598 ft 364 kts 93°
2026-05-05 20:44 51.23266 -113.54195 14184 ft 368 kts 92°
2026-05-05 20:45 51.22568 -113.46028 15315 ft 374 kts 91°
2026-05-05 20:45 51.22211 -113.41909 15911 ft 376 kts 91°
2026-05-05 20:45 51.21849 -113.37763 16449 ft 379 kts 90°
2026-05-05 20:46 51.21483 -113.33584 16961 ft 382 kts 89°
2026-05-05 20:46 51.21116 -113.29371 17435 ft 385 kts 89°
2026-05-05 20:46 51.20748 -113.25126 17891 ft 388 kts 88°
2026-05-05 20:46 51.20375 -113.20851 18338 ft 391 kts 88°
2026-05-05 20:47 51.19994 -113.16543 18744 ft 394 kts 87°
2026-05-05 20:47 51.19607 -113.12208 19130 ft 396 kts 87°
2026-05-05 20:47 51.19217 -113.07849 19494 ft 398 kts 87°
2026-05-05 20:47 51.18824 -113.03468 19857 ft 400 kts 87°
2026-05-05 20:48 51.18428 -112.99067 20202 ft 402 kts 87°
2026-05-05 20:48 51.18030 -112.94647 20551 ft 404 kts 87°
2026-05-05 20:48 51.17626 -112.90206 20964 ft 406 kts 87°
2026-05-05 20:48 51.17217 -112.85756 21349 ft 406 kts 87°
2026-05-05 20:49 51.16807 -112.81293 21695 ft 408 kts 86°
2026-05-05 20:49 51.16393 -112.76821 22035 ft 410 kts 86°
2026-05-05 20:49 51.15975 -112.72306 22361 ft 412 kts 86°
2026-05-05 20:49 51.15558 -112.67792 22712 ft 414 kts 86°
2026-05-05 20:50 51.15144 -112.63307 23034 ft 416 kts 85°
2026-05-05 20:50 51.14720 -112.58740 23375 ft 418 kts 85°
2026-05-05 20:50 51.14289 -112.54150 23719 ft 420 kts 85°
2026-05-05 20:50 51.13853 -112.49538 24005 ft 422 kts 85°
2026-05-05 20:51 51.13412 -112.44905 24272 ft 424 kts 85°
2026-05-05 20:51 51.12969 -112.40249 24536 ft 426 kts 85°
2026-05-05 20:51 51.12521 -112.35570 24891 ft 429 kts 85°
2026-05-05 20:51 51.12069 -112.30873 25177 ft 430 kts 85°
2026-05-05 20:52 51.11612 -112.26160 25458 ft 432 kts 85°
2026-05-05 20:52 51.11150 -112.21427 25736 ft 434 kts 85°
2026-05-05 20:52 51.10688 -112.16670 25976 ft 436 kts 85°
2026-05-05 20:52 51.10227 -112.11899 26229 ft 438 kts 85°
2026-05-05 20:53 51.09758 -112.07085 26476 ft 440 kts 85°
2026-05-05 20:53 51.09284 -112.02269 26724 ft 443 kts 85°
2026-05-05 20:53 51.08804 -111.97422 26985 ft 445 kts 85°
2026-05-05 20:53 51.08317 -111.92555 27221 ft 447 kts 85°
2026-05-05 20:54 51.07826 -111.87668 27454 ft 449 kts 85°
2026-05-05 20:54 51.07333 -111.82757 27697 ft 451 kts 85°
2026-05-05 20:54 51.06835 -111.77825 28011 ft 453 kts 86°
2026-05-05 20:54 51.06332 -111.72870 28236 ft 455 kts 86°
2026-05-05 20:55 51.05821 -111.67894 28468 ft 457 kts 86°
2026-05-05 20:55 51.05306 -111.62897 28698 ft 459 kts 86°
2026-05-05 20:55 51.04787 -111.57881 28922 ft 461 kts 86°
2026-05-05 20:55 51.04263 -111.52845 29139 ft 463 kts 86°
2026-05-05 20:56 51.03737 -111.47794 29262 ft 464 kts 86°
2026-05-05 20:56 51.03207 -111.42738 29274 ft 464 kts 86°
2026-05-05 20:56 51.02149 -111.32633 29261 ft 463 kts 86°
2026-05-05 20:57 51.01093 -111.22557 29315 ft 463 kts 86°
2026-05-05 20:57 51.00026 -111.12515 29264 ft 461 kts 86°
2026-05-05 20:58 50.98947 -111.02486 29266 ft 461 kts 86°
2026-05-05 20:58 50.97865 -110.92527 29267 ft 461 kts 86°
2026-05-05 20:59 50.96769 -110.82501 29263 ft 461 kts 86°
2026-05-05 20:59 50.95663 -110.72479 29260 ft 461 kts 86°
2026-05-05 21:00 50.94555 -110.62491 29254 ft 459 kts 88°
2026-05-05 21:00 50.93435 -110.52530 29285 ft 459 kts 88°
2026-05-05 21:01 50.92507 -110.44252 29313 ft 459 kts 88°
2026-05-05 21:01 50.91945 -110.39260 29566 ft 461 kts 88°
2026-05-05 21:01 50.91373 -110.34250 29763 ft 463 kts 88°
2026-05-05 21:02 50.90798 -110.29226 29944 ft 464 kts 88°
2026-05-05 21:02 50.90220 -110.24185 30118 ft 466 kts 87°
2026-05-05 21:02 50.89640 -110.19130 30283 ft 467 kts 87°
2026-05-05 21:02 50.89057 -110.14076 30521 ft 467 kts 90°
2026-05-05 21:03 50.88467 -110.09010 30756 ft 466 kts 90°
2026-05-05 21:03 50.87875 -110.03980 30979 ft 465 kts 90°
2026-05-05 21:03 50.87360 -109.98948 31164 ft 458 kts 85°
2026-05-05 21:03 50.87126 -109.93943 31341 ft 455 kts 83°
2026-05-05 21:04 50.86912 -109.88946 31547 ft 455 kts 83°
2026-05-05 21:04 50.86698 -109.83956 31759 ft 454 kts 83°
2026-05-05 21:04 50.86478 -109.78972 31966 ft 454 kts 83°
2026-05-05 21:04 50.86255 -109.73993 32169 ft 453 kts 83°
2026-05-05 21:05 50.86028 -109.69016 32377 ft 453 kts 83°
2026-05-05 21:05 50.85799 -109.64044 32569 ft 453 kts 83°
2026-05-05 21:05 50.85571 -109.59074 32833 ft 453 kts 85°
2026-05-05 21:05 50.85339 -109.54099 32991 ft 454 kts 85°
2026-05-05 21:06 50.85098 -109.49120 33167 ft 454 kts 85°
2026-05-05 21:06 50.84856 -109.44152 33348 ft 454 kts 85°
2026-05-05 21:06 50.84611 -109.39172 33529 ft 454 kts 85°
2026-05-05 21:06 50.84366 -109.34194 33708 ft 454 kts 85°
2026-05-05 21:07 50.84121 -109.29217 33891 ft 454 kts 85°
2026-05-05 21:07 50.83876 -109.24241 34079 ft 454 kts 85°
2026-05-05 21:07 50.83631 -109.19267 34250 ft 454 kts 85°
2026-05-05 21:07 50.83381 -109.14292 34393 ft 454 kts 85°
2026-05-05 21:08 50.83126 -109.09317 34559 ft 454 kts 86°
2026-05-05 21:08 50.82867 -109.04336 34686 ft 455 kts 86°
2026-05-05 21:08 50.82607 -108.99348 34806 ft 455 kts 87°
2026-05-05 21:08 50.82345 -108.94358 34933 ft 455 kts 87°
2026-05-05 21:09 50.82078 -108.89367 35066 ft 455 kts 87°
2026-05-05 21:09 50.81807 -108.84381 35199 ft 455 kts 87°
2026-05-05 21:09 50.81269 -108.74452 35233 ft 452 kts 87°
2026-05-05 21:10 50.80733 -108.64578 35232 ft 451 kts 87°
2026-05-05 21:10 50.80197 -108.54766 35231 ft 451 kts 87°
2026-05-05 21:11 50.79633 -108.44889 35227 ft 451 kts 88°
2026-05-05 21:11 50.79065 -108.35009 35228 ft 451 kts 88°
2026-05-05 21:12 50.78493 -108.25131 35221 ft 451 kts 88°
2026-05-05 21:12 50.77915 -108.15253 35221 ft 451 kts 88°
2026-05-05 21:13 50.77328 -108.05386 35256 ft 452 kts 89°
2026-05-05 21:13 50.76727 -107.95504 35243 ft 452 kts 89°
2026-05-05 21:14 50.76112 -107.85623 35226 ft 452 kts 89°
2026-05-05 21:14 50.75492 -107.75741 35221 ft 452 kts 89°
2026-05-05 21:15 50.74866 -107.65858 35219 ft 452 kts 89°
2026-05-05 21:15 50.74241 -107.55974 35232 ft 452 kts 90°
2026-05-05 21:16 50.73613 -107.46086 35230 ft 453 kts 90°
2026-05-05 21:16 50.72964 -107.36204 35236 ft 453 kts 90°
2026-05-05 21:17 50.72300 -107.26338 35231 ft 452 kts 90°
2026-05-05 21:17 50.71626 -107.16463 35223 ft 453 kts 90°
2026-05-05 21:18 50.70949 -107.06587 35218 ft 453 kts 90°
2026-05-05 21:18 50.70276 -106.96714 35235 ft 453 kts 90°
2026-05-05 21:19 50.69587 -106.86848 35225 ft 452 kts 91°
2026-05-05 21:19 50.68878 -106.76985 35223 ft 453 kts 91°
2026-05-05 21:20 50.68167 -106.67123 35218 ft 453 kts 91°
2026-05-05 21:20 50.67451 -106.57261 35217 ft 453 kts 91°
2026-05-05 21:21 50.66720 -106.47403 35234 ft 453 kts 91°
2026-05-05 21:21 50.65991 -106.37628 35220 ft 452 kts 91°
2026-05-05 21:22 50.65253 -106.27788 35227 ft 452 kts 92°
2026-05-05 21:22 50.64504 -106.17955 35212 ft 452 kts 92°
2026-05-05 21:23 50.63744 -106.08132 35205 ft 452 kts 92°
2026-05-05 21:23 50.62981 -105.98318 35210 ft 451 kts 92°
2026-05-05 21:24 50.62206 -105.88512 35198 ft 451 kts 92°
2026-05-05 21:24 50.61430 -105.78726 35184 ft 451 kts 92°
2026-05-05 21:25 50.60643 -105.68938 35174 ft 451 kts 92°
2026-05-05 21:25 50.59844 -105.59152 35171 ft 451 kts 92°
2026-05-05 21:26 50.59038 -105.49368 35191 ft 451 kts 92°
2026-05-05 21:26 50.58225 -105.39590 35184 ft 450 kts 92°
2026-05-05 21:27 50.57402 -105.29821 35181 ft 450 kts 93°
2026-05-05 21:27 50.56575 -105.20058 35180 ft 450 kts 93°
2026-05-05 21:28 50.55744 -105.10348 35182 ft 451 kts 93°
2026-05-05 21:28 50.54904 -105.00635 35208 ft 451 kts 93°
2026-05-05 21:29 50.54046 -104.90863 35145 ft 451 kts 93°
2026-05-05 21:29 50.53180 -104.81119 35126 ft 451 kts 93°
2026-05-05 21:30 50.52306 -104.71370 35110 ft 450 kts 93°
2026-05-05 21:30 50.51431 -104.61631 35108 ft 450 kts 93°
2026-05-05 21:31 50.50549 -104.51897 35137 ft 450 kts 94°
2026-05-05 21:31 50.49655 -104.42168 35132 ft 450 kts 94°
2026-05-05 21:32 50.48755 -104.32445 35135 ft 450 kts 94°
2026-05-05 21:32 50.47846 -104.22716 35143 ft 450 kts 94°
2026-05-05 21:33 50.46928 -104.13009 35143 ft 450 kts 94°
2026-05-05 21:33 50.46000 -104.03287 35139 ft 451 kts 94°
2026-05-05 21:34 50.45067 -103.93552 35154 ft 451 kts 94°
2026-05-05 21:34 50.44123 -103.83810 35142 ft 452 kts 94°
2026-05-05 21:35 50.43162 -103.74071 35140 ft 452 kts 95°
2026-05-05 21:35 50.42194 -103.64307 35139 ft 453 kts 95°
2026-05-05 21:36 50.41224 -103.54564 35145 ft 453 kts 95°
2026-05-05 21:36 50.40244 -103.44810 35143 ft 453 kts 95°
2026-05-05 21:37 50.39252 -103.35059 35142 ft 453 kts 95°
2026-05-05 21:37 50.38247 -103.25313 35141 ft 453 kts 95°
2026-05-05 21:38 50.37239 -103.15569 35141 ft 453 kts 95°
2026-05-05 21:38 50.36224 -103.05823 35136 ft 453 kts 95°
2026-05-05 21:39 50.35200 -102.96088 35149 ft 454 kts 95°
2026-05-05 21:39 50.34172 -102.86345 35149 ft 453 kts 95°
2026-05-05 21:40 50.33138 -102.76672 35128 ft 453 kts 96°
2026-05-05 21:40 50.32092 -102.66944 35125 ft 453 kts 96°
2026-05-05 21:41 50.31041 -102.57224 35129 ft 453 kts 96°
2026-05-05 21:41 50.29980 -102.47509 35141 ft 453 kts 96°
2026-05-05 21:42 50.28904 -102.37793 35132 ft 453 kts 96°
2026-05-05 21:42 50.27816 -102.28080 35130 ft 453 kts 96°
2026-05-05 21:43 50.26737 -102.18377 35128 ft 454 kts 96°
2026-05-05 21:43 50.25651 -102.08666 35126 ft 453 kts 96°
2026-05-05 21:44 50.24546 -101.98961 35133 ft 454 kts 97°
2026-05-05 21:44 50.23422 -101.89254 35119 ft 454 kts 97°
2026-05-05 21:45 50.22295 -101.79543 35110 ft 454 kts 97°
2026-05-05 21:45 50.21166 -101.69832 35110 ft 455 kts 97°
2026-05-05 21:46 50.20034 -101.60130 35106 ft 455 kts 97°
2026-05-05 21:46 50.18891 -101.50419 35123 ft 455 kts 97°
2026-05-05 21:47 50.17736 -101.40702 35114 ft 456 kts 97°
2026-05-05 21:47 50.16561 -101.30984 35110 ft 456 kts 98°
2026-05-05 21:48 50.15379 -101.21271 35104 ft 456 kts 98°
2026-05-05 21:48 50.14400 -101.13195 35102 ft 456 kts 98°
2026-05-05 21:49 50.13218 -101.03492 35121 ft 456 kts 98°
2026-05-05 21:49 50.12014 -100.93777 35109 ft 457 kts 98°
2026-05-05 21:50 50.10804 -100.84049 35096 ft 458 kts 98°
2026-05-05 21:50 50.09585 -100.74311 35095 ft 458 kts 98°
2026-05-05 21:51 50.08354 -100.64570 35101 ft 459 kts 98°
2026-05-05 21:51 50.07117 -100.54827 35118 ft 459 kts 99°
2026-05-05 21:52 50.05253 -100.40217 35109 ft 459 kts 99°
2026-05-05 21:53 50.03988 -100.30474 35110 ft 459 kts 99°
2026-05-05 21:53 50.02713 -100.20733 35111 ft 459 kts 99°
2026-05-05 21:54 50.01440 -100.10997 35109 ft 459 kts 99°
2026-05-05 21:54 50.00155 -100.01265 35121 ft 460 kts 99°
2026-05-05 21:55 49.98951 -99.91511 35106 ft 459 kts 98°
2026-05-05 21:55 49.97846 -99.81729 35090 ft 460 kts 98°
2026-05-05 21:56 49.96736 -99.71940 35093 ft 460 kts 98°
2026-05-05 21:56 49.95589 -99.62152 35097 ft 461 kts 98°
2026-05-05 21:57 49.94414 -99.52376 35103 ft 461 kts 98°
2026-05-05 21:57 49.93236 -99.42588 35091 ft 461 kts 98°
2026-05-05 21:58 49.92057 -99.32797 35092 ft 462 kts 99°
2026-05-05 21:58 49.90872 -99.23003 35096 ft 462 kts 98°
2026-05-05 21:59 49.89691 -99.13271 35101 ft 462 kts 99°
2026-05-05 21:59 49.88488 -99.03476 35099 ft 462 kts 99°
2026-05-05 22:00 49.87270 -98.93684 35105 ft 463 kts 99°
2026-05-05 22:00 49.86043 -98.83905 35099 ft 463 kts 99°
2026-05-05 22:01 49.84810 -98.74109 35092 ft 464 kts 99°
2026-05-05 22:01 49.83557 -98.64302 35089 ft 464 kts 100°
2026-05-05 22:02 49.82299 -98.54488 35091 ft 465 kts 99°
2026-05-05 22:02 49.81045 -98.44677 35088 ft 465 kts 99°
2026-05-05 22:03 49.79770 -98.34859 35069 ft 465 kts 99°
2026-05-05 22:03 49.78488 -98.25047 35071 ft 465 kts 100°
2026-05-05 22:04 49.77199 -98.15239 35084 ft 465 kts 100°
2026-05-05 22:04 49.75902 -98.05445 35082 ft 465 kts 100°
2026-05-05 22:05 49.74594 -97.95635 35080 ft 466 kts 101°
2026-05-05 22:05 49.73282 -97.85896 35083 ft 466 kts 100°
2026-05-05 22:06 49.71959 -97.76097 35076 ft 466 kts 99°
2026-05-05 22:06 49.70628 -97.66309 35082 ft 465 kts 100°
2026-05-05 22:07 49.69281 -97.56516 35055 ft 466 kts 100°
2026-05-05 22:07 49.67926 -97.46730 35041 ft 467 kts 101°
2026-05-05 22:08 49.66567 -97.36925 35030 ft 467 kts 100°
2026-05-05 22:08 49.65198 -97.27122 35036 ft 467 kts 100°
2026-05-05 22:09 49.63806 -97.17318 35045 ft 468 kts 101°
2026-05-05 22:09 49.62415 -97.07536 35048 ft 468 kts 101°
2026-05-05 22:10 49.61021 -96.97753 35051 ft 468 kts 101°
2026-05-05 22:10 49.59621 -96.87966 35052 ft 467 kts 101°
2026-05-05 22:11 49.58207 -96.78193 35040 ft 467 kts 101°
2026-05-05 22:11 49.56787 -96.68428 35054 ft 467 kts 101°
2026-05-05 22:12 49.55357 -96.58667 35036 ft 467 kts 102°
2026-05-05 22:12 49.53920 -96.48905 35033 ft 468 kts 102°
2026-05-05 22:13 49.52474 -96.39139 35024 ft 468 kts 102°
2026-05-05 22:13 49.51022 -96.29380 35028 ft 468 kts 102°
2026-05-05 22:14 49.49550 -96.19611 35033 ft 469 kts 102°
2026-05-05 22:14 49.48075 -96.09842 35032 ft 469 kts 102°
2026-05-05 22:15 49.46594 -96.00075 35021 ft 469 kts 102°
2026-05-05 22:15 49.45111 -95.90336 35012 ft 468 kts 102°
2026-05-05 22:16 49.43612 -95.80595 35023 ft 468 kts 102°
2026-05-05 22:16 49.42104 -95.70851 35011 ft 469 kts 102°
2026-05-05 22:17 49.40600 -95.61167 35010 ft 469 kts 102°
2026-05-05 22:17 49.39072 -95.51415 34992 ft 470 kts 103°
2026-05-05 22:18 49.37532 -95.41661 34995 ft 470 kts 103°
2026-05-05 22:18 49.35983 -95.31913 35011 ft 471 kts 103°
2026-05-05 22:19 49.34433 -95.22150 35010 ft 471 kts 103°
2026-05-05 22:19 49.32871 -95.12394 35008 ft 471 kts 103°
2026-05-05 22:20 49.31299 -95.02647 35008 ft 471 kts 103°
2026-05-05 22:20 49.29726 -94.92914 35004 ft 471 kts 103°
2026-05-05 22:21 49.28134 -94.83190 35005 ft 471 kts 104°
2026-05-05 22:21 49.26531 -94.73474 35001 ft 470 kts 104°
2026-05-05 22:22 49.24929 -94.63766 35001 ft 470 kts 104°
2026-05-05 22:22 49.23325 -94.54064 34997 ft 470 kts 104°
2026-05-05 22:23 49.21712 -94.44367 34986 ft 470 kts 104°
2026-05-05 22:23 49.20083 -94.34670 34984 ft 471 kts 104°
2026-05-05 22:24 49.18446 -94.24972 34978 ft 472 kts 104°
2026-05-05 22:24 49.16791 -94.15256 34979 ft 472 kts 104°
2026-05-05 22:25 49.15133 -94.05541 34974 ft 473 kts 104°
2026-05-05 22:25 49.13471 -93.95823 34978 ft 473 kts 104°
2026-05-05 22:26 49.11796 -93.86104 34977 ft 473 kts 105°
2026-05-05 22:26 49.10117 -93.76399 34979 ft 473 kts 105°
2026-05-05 22:27 49.08427 -93.66689 34975 ft 473 kts 105°
2026-05-05 22:27 49.06735 -93.57055 34976 ft 473 kts 105°
2026-05-05 22:28 49.05022 -93.47365 34972 ft 473 kts 105°
2026-05-05 22:28 49.03304 -93.37683 34945 ft 473 kts 105°
2026-05-05 22:29 49.01578 -93.28004 34935 ft 474 kts 105°
2026-05-05 22:29 48.99846 -93.18332 34939 ft 474 kts 106°
2026-05-05 22:30 48.98100 -93.08650 34939 ft 474 kts 106°
2026-05-05 22:30 48.96349 -92.98970 34941 ft 474 kts 106°
2026-05-05 22:31 48.94585 -92.89296 34937 ft 475 kts 106°
2026-05-05 22:31 48.92807 -92.79627 34935 ft 475 kts 106°
2026-05-05 22:32 48.91024 -92.69957 34939 ft 475 kts 106°
2026-05-05 22:32 48.89240 -92.60290 34940 ft 475 kts 106°
2026-05-05 22:33 48.87450 -92.50641 34940 ft 475 kts 106°
2026-05-05 22:33 48.85640 -92.40999 34934 ft 474 kts 107°
2026-05-05 22:34 48.83815 -92.31376 34928 ft 474 kts 107°
2026-05-05 22:34 48.81993 -92.21759 34922 ft 474 kts 107°
2026-05-05 22:35 48.80171 -92.12144 34924 ft 474 kts 107°
2026-05-05 22:35 48.78646 -92.04150 34917 ft 475 kts 107°
2026-05-05 22:36 48.76801 -91.94551 34913 ft 475 kts 107°
2026-05-05 22:36 48.74948 -91.84947 34913 ft 475 kts 107°
2026-05-05 22:37 48.73090 -91.75352 34911 ft 475 kts 107°
2026-05-05 22:37 48.71222 -91.65751 34912 ft 475 kts 107°
2026-05-05 22:38 48.69354 -91.56155 34906 ft 475 kts 107°
2026-05-05 22:38 48.67474 -91.46581 34907 ft 475 kts 108°
2026-05-05 22:39 48.65576 -91.37009 34906 ft 475 kts 108°
2026-05-05 22:39 48.63676 -91.27443 34893 ft 475 kts 108°
2026-05-05 22:40 48.61763 -91.17870 34880 ft 476 kts 108°
2026-05-05 22:40 48.59843 -91.08290 34881 ft 477 kts 108°
2026-05-05 22:41 48.57919 -90.98706 34877 ft 477 kts 108°
2026-05-05 22:41 48.55979 -90.89137 34881 ft 477 kts 108°
2026-05-05 22:42 48.54032 -90.79553 34873 ft 478 kts 108°
2026-05-05 22:42 48.52081 -90.70035 34875 ft 478 kts 108°
2026-05-05 22:43 48.50112 -90.60454 34872 ft 479 kts 108°
2026-05-05 22:43 48.48132 -90.50868 34865 ft 479 kts 109°
2026-05-05 22:44 48.46146 -90.41283 34877 ft 479 kts 109°
2026-05-05 22:44 48.44152 -90.31711 34873 ft 480 kts 109°
2026-05-05 22:45 48.42144 -90.22127 34855 ft 480 kts 109°
2026-05-05 22:45 48.40120 -90.12531 34854 ft 481 kts 109°
2026-05-05 22:46 48.38092 -90.02920 34860 ft 482 kts 109°
2026-05-05 22:46 48.36053 -89.93306 34865 ft 483 kts 109°
2026-05-05 22:47 48.34004 -89.83692 34860 ft 483 kts 109°
2026-05-05 22:47 48.31941 -89.74088 34855 ft 483 kts 109°
2026-05-05 22:48 48.29868 -89.64483 34847 ft 483 kts 109°
2026-05-05 22:48 48.27787 -89.54898 34844 ft 483 kts 109°
2026-05-05 22:49 48.25700 -89.45314 34837 ft 483 kts 110°
2026-05-05 22:49 48.23335 -89.35905 34835 ft 481 kts 115°
2026-05-05 22:50 48.20638 -89.26725 34809 ft 481 kts 117°
2026-05-05 22:50 48.17887 -89.17567 34816 ft 482 kts 116°
2026-05-05 22:51 48.15213 -89.08338 34821 ft 483 kts 115°
2026-05-05 22:51 48.12571 -88.99073 34828 ft 484 kts 115°
2026-05-05 22:52 48.09916 -88.89821 34829 ft 484 kts 116°
2026-05-05 22:52 48.07229 -88.80569 34832 ft 484 kts 116°
2026-05-05 22:53 48.04532 -88.71354 34834 ft 484 kts 116°
2026-05-05 22:53 48.01833 -88.62130 34835 ft 484 kts 116°
2026-05-05 22:54 47.99135 -88.52915 34806 ft 485 kts 116°
2026-05-05 22:54 47.96443 -88.43753 34817 ft 486 kts 116°
2026-05-05 22:55 47.93705 -88.34530 34828 ft 487 kts 116°
2026-05-05 22:55 47.90955 -88.25301 34825 ft 487 kts 116°
2026-05-05 22:56 47.88209 -88.16075 34830 ft 488 kts 116°
2026-05-05 22:56 47.85450 -88.06844 34852 ft 488 kts 117°
2026-05-05 22:57 47.82682 -87.97623 34855 ft 488 kts 117°
2026-05-05 22:57 47.79903 -87.88401 34854 ft 488 kts 117°
2026-05-05 22:58 47.77121 -87.79193 34840 ft 489 kts 117°
2026-05-05 22:58 47.74313 -87.69987 34845 ft 489 kts 117°
2026-05-05 22:59 47.71500 -87.60777 34845 ft 490 kts 117°
2026-05-05 22:59 47.68679 -87.51568 34855 ft 490 kts 117°
2026-05-05 23:00 47.64440 -87.37763 34857 ft 491 kts 117°
2026-05-05 23:00 47.61599 -87.28558 34855 ft 491 kts 117°
2026-05-05 23:01 47.58748 -87.19361 34866 ft 491 kts 118°
2026-05-05 23:01 47.55886 -87.10175 34863 ft 491 kts 118°
2026-05-05 23:02 47.53017 -87.00994 34834 ft 492 kts 118°
2026-05-05 23:02 47.50162 -86.91867 34838 ft 492 kts 118°
2026-05-05 23:03 47.47280 -86.82685 34845 ft 493 kts 118°
2026-05-05 23:03 47.44366 -86.73447 34849 ft 493 kts 118°
2026-05-05 23:04 47.41486 -86.64332 34863 ft 493 kts 118°
2026-05-05 23:04 47.38576 -86.55157 34864 ft 494 kts 118°
2026-05-05 23:05 47.35656 -86.46005 34865 ft 493 kts 119°
2026-05-05 23:05 47.32724 -86.36852 34840 ft 493 kts 119°
2026-05-05 23:06 47.29784 -86.27705 34844 ft 494 kts 119°
2026-05-05 23:06 47.26831 -86.18553 34848 ft 495 kts 120°
2026-05-05 23:07 47.23863 -86.09403 34851 ft 496 kts 120°
2026-05-05 23:07 47.20891 -86.00249 34864 ft 496 kts 120°
2026-05-05 23:08 47.17916 -85.91100 34862 ft 496 kts 120°
2026-05-05 23:08 47.14931 -85.81962 34854 ft 496 kts 120°
2026-05-05 23:09 47.11927 -85.72834 34853 ft 496 kts 120°
2026-05-05 23:09 47.08911 -85.63716 34836 ft 497 kts 121°
2026-05-05 23:10 47.05892 -85.54587 34842 ft 498 kts 121°
2026-05-05 23:10 47.02862 -85.45447 34840 ft 500 kts 121°
2026-05-05 23:11 46.99806 -85.36280 34868 ft 509 kts 121°
2026-05-05 23:11 46.96682 -85.26940 34870 ft 511 kts 121°
2026-05-05 23:12 46.93553 -85.17586 34870 ft 513 kts 121°
2026-05-05 23:12 46.90386 -85.08170 34866 ft 517 kts 121°
2026-05-05 23:13 46.87188 -84.98730 34873 ft 519 kts 121°
2026-05-05 23:13 46.83975 -84.89269 34851 ft 520 kts 121°
2026-05-05 23:14 46.80755 -84.79792 34858 ft 521 kts 121°
2026-05-05 23:14 46.77523 -84.70315 34858 ft 522 kts 122°
2026-05-05 23:15 46.74273 -84.60841 34857 ft 523 kts 122°
2026-05-05 23:15 46.71015 -84.51367 34861 ft 523 kts 122°
2026-05-05 23:16 46.67749 -84.41913 34864 ft 523 kts 122°
2026-05-05 23:16 46.64471 -84.32452 34847 ft 523 kts 122°
2026-05-05 23:17 46.61192 -84.23004 34848 ft 523 kts 122°
2026-05-05 23:17 46.57901 -84.13582 34849 ft 523 kts 122°
2026-05-05 23:18 46.54599 -84.04160 34850 ft 523 kts 122°
2026-05-05 23:18 46.51307 -83.94808 34838 ft 524 kts 122°
2026-05-05 23:19 46.47988 -83.85407 34841 ft 523 kts 123°
2026-05-05 23:19 46.44659 -83.76001 34851 ft 524 kts 123°
2026-05-05 23:20 46.41325 -83.66619 34852 ft 524 kts 123°
2026-05-05 23:20 46.37426 -83.57851 34827 ft 516 kts 132°
2026-05-05 23:21 46.33265 -83.49382 34827 ft 516 kts 133°
2026-05-05 23:21 46.29099 -83.40910 34832 ft 517 kts 133°
2026-05-05 23:22 46.24931 -83.32454 34837 ft 517 kts 133°
2026-05-05 23:22 46.20753 -83.23997 34840 ft 517 kts 133°
2026-05-05 23:23 46.16570 -83.15548 34831 ft 517 kts 133°
2026-05-05 23:23 46.12377 -83.07095 34802 ft 519 kts 134°
2026-05-05 23:24 46.08192 -82.98703 34813 ft 519 kts 134°
2026-05-05 23:24 46.03962 -82.90265 34817 ft 520 kts 134°
2026-05-05 23:25 45.99733 -82.81836 34809 ft 520 kts 134°
2026-05-05 23:25 45.96175 -82.74779 34819 ft 520 kts 134°
2026-05-05 23:26 45.91925 -82.66370 34791 ft 520 kts 135°
2026-05-05 23:26 45.87691 -82.58002 34818 ft 522 kts 135°
2026-05-05 23:27 45.83428 -82.49586 34824 ft 522 kts 135°
2026-05-05 23:27 45.79152 -82.41178 34836 ft 522 kts 135°
2026-05-05 23:28 45.74868 -82.32791 34847 ft 521 kts 135°
2026-05-05 23:28 45.70578 -82.24420 34785 ft 521 kts 136°
2026-05-05 23:29 45.66276 -82.16056 34826 ft 523 kts 136°
2026-05-05 23:29 45.61933 -82.07748 34835 ft 518 kts 140°
2026-05-05 23:30 45.59519 -82.04015 34841 ft 506 kts 147°
2026-05-05 23:30 45.56966 -82.00572 34854 ft 505 kts 148°
2026-05-05 23:30 45.51845 -81.93724 34851 ft 504 kts 148°
2026-05-05 23:31 45.46719 -81.86900 34824 ft 504 kts 148°
2026-05-05 23:31 45.41592 -81.80078 34834 ft 505 kts 148°
2026-05-05 23:32 45.36461 -81.73261 34842 ft 505 kts 148°
2026-05-05 23:32 45.31330 -81.66448 34853 ft 505 kts 148°
2026-05-05 23:33 45.26201 -81.59653 34795 ft 504 kts 148°
2026-05-05 23:33 45.21064 -81.52870 34866 ft 505 kts 148°
2026-05-05 23:34 45.15919 -81.46104 34876 ft 504 kts 148°
2026-05-05 23:34 45.10789 -81.39366 34883 ft 502 kts 148°
2026-05-05 23:35 45.05670 -81.32661 34880 ft 501 kts 148°
2026-05-05 23:35 45.00567 -81.25993 34839 ft 499 kts 148°
2026-05-05 23:36 44.95480 -81.19349 34622 ft 493 kts 148°
2026-05-05 23:36 44.92978 -81.16082 34379 ft 488 kts 148°
2026-05-05 23:36 44.90491 -81.12848 34145 ft 485 kts 149°
2026-05-05 23:37 44.88016 -81.09642 33904 ft 483 kts 149°
2026-05-05 23:37 44.85541 -81.06441 33637 ft 482 kts 149°
2026-05-05 23:37 44.83068 -81.03248 33310 ft 481 kts 149°
2026-05-05 23:37 44.80603 -81.00064 33034 ft 480 kts 149°
2026-05-05 23:38 44.78142 -80.96883 32705 ft 480 kts 149°
2026-05-05 23:38 44.75666 -80.93698 31612 ft 486 kts 150°
2026-05-05 23:38 44.73161 -80.90489 30658 ft 488 kts 150°
2026-05-05 23:38 44.70641 -80.87265 29489 ft 493 kts 150°
2026-05-05 23:39 44.68103 -80.84013 28410 ft 494 kts 150°
2026-05-05 23:39 44.65557 -80.80745 27236 ft 498 kts 149°
2026-05-05 23:39 44.63021 -80.77494 26017 ft 502 kts 148°
2026-05-05 23:39 44.60403 -80.74144 25071 ft 500 kts 148°
2026-05-05 23:40 44.57870 -80.70885 24486 ft 491 kts 147°
2026-05-05 23:40 44.55362 -80.67659 23738 ft 487 kts 147°
2026-05-05 23:40 44.52873 -80.64466 22963 ft 483 kts 147°
2026-05-05 23:40 44.50443 -80.61360 22300 ft 476 kts 147°
2026-05-05 23:41 44.48011 -80.58263 21650 ft 469 kts 148°
2026-05-05 23:41 44.45613 -80.55220 21013 ft 462 kts 147°
2026-05-05 23:41 44.43249 -80.52225 20365 ft 455 kts 148°
2026-05-05 23:41 44.40920 -80.49272 19772 ft 448 kts 148°
2026-05-05 23:42 44.38629 -80.46374 19190 ft 441 kts 148°
2026-05-05 23:42 44.36366 -80.43514 18621 ft 434 kts 148°
2026-05-05 23:42 44.34153 -80.40717 18082 ft 426 kts 148°
2026-05-05 23:42 44.31982 -80.37973 17628 ft 414 kts 148°
2026-05-05 23:43 44.29880 -80.35314 17222 ft 406 kts 149°
2026-05-05 23:43 44.27789 -80.32688 16749 ft 403 kts 149°
2026-05-05 23:43 44.25707 -80.30084 16297 ft 401 kts 149°
2026-05-05 23:43 44.23640 -80.27499 15838 ft 398 kts 149°
2026-05-05 23:44 44.21588 -80.24928 15375 ft 395 kts 149°
2026-05-05 23:44 44.19552 -80.22377 14876 ft 392 kts 148°
2026-05-05 23:44 44.17529 -80.19845 14418 ft 390 kts 148°
2026-05-05 23:44 44.15522 -80.17324 13953 ft 387 kts 148°
2026-05-05 23:45 44.13568 -80.14849 13788 ft 372 kts 148°
2026-05-05 23:45 44.11696 -80.12466 13664 ft 357 kts 148°
2026-05-05 23:45 44.09902 -80.10183 13545 ft 342 kts 149°
2026-05-05 23:45 44.08196 -80.07948 13388 ft 339 kts 142°
2026-05-05 23:46 44.06863 -80.05070 13176 ft 363 kts 122°
2026-05-05 23:46 44.05916 -80.01857 12914 ft 356 kts 120°
2026-05-05 23:46 44.05014 -79.98672 12648 ft 352 kts 120°
2026-05-05 23:46 44.04129 -79.95523 12262 ft 348 kts 120°
2026-05-05 23:47 44.03251 -79.92410 11869 ft 345 kts 120°
2026-05-05 23:47 44.02372 -79.89319 11488 ft 343 kts 120°
2026-05-05 23:47 44.01493 -79.86255 11120 ft 340 kts 120°
2026-05-05 23:47 44.00617 -79.83215 10742 ft 338 kts 120°
2026-05-05 23:48 43.99747 -79.80201 10366 ft 335 kts 120°
2026-05-05 23:48 43.98880 -79.77205 10013 ft 332 kts 120°
2026-05-05 23:48 43.98024 -79.74251 9640 ft 327 kts 120°
2026-05-05 23:48 43.97179 -79.71338 9061 ft 323 kts 119°
2026-05-05 23:49 43.96347 -79.68469 8504 ft 319 kts 118°
2026-05-05 23:49 43.95523 -79.65632 7966 ft 314 kts 117°
2026-05-05 23:49 43.94711 -79.62843 7420 ft 310 kts 116°
2026-05-05 23:49 43.93896 -79.60089 6884 ft 306 kts 116°
2026-05-05 23:50 43.93064 -79.57383 6363 ft 303 kts 116°
2026-05-05 23:50 43.92213 -79.54727 5814 ft 299 kts 116°
2026-05-05 23:50 43.91352 -79.52129 5326 ft 293 kts 116°
2026-05-05 23:50 43.90506 -79.49654 5163 ft 275 kts 117°
2026-05-05 23:51 43.89727 -79.47390 4973 ft 259 kts 117°
2026-05-05 23:51 43.88961 -79.45178 4827 ft 239 kts 118°
2026-05-05 23:51 43.87946 -79.43517 4695 ft 218 kts 151°
2026-05-05 23:51 43.86569 -79.42964 4373 ft 202 kts 187°
2026-05-05 23:52 43.85214 -79.43296 3940 ft 196 kts 198°
2026-05-05 23:52 43.83905 -79.43811 3505 ft 194 kts 199°
2026-05-05 23:52 43.82645 -79.44448 3091 ft 192 kts 211°
2026-05-05 23:52 43.81669 -79.45626 3012 ft 190 kts 227°
2026-05-05 23:53 43.80758 -79.46957 3013 ft 190 kts 227°
2026-05-05 23:53 43.79847 -79.48289 3012 ft 191 kts 227°
2026-05-05 23:53 43.78932 -79.49625 3013 ft 191 kts 227°
2026-05-05 23:53 43.78019 -79.50960 2981 ft 192 kts 227°
2026-05-05 23:54 43.77103 -79.52297 2801 ft 191 kts 227°
2026-05-05 23:54 43.76191 -79.53628 2556 ft 191 kts 227°
2026-05-05 23:54 43.75265 -79.54980 2302 ft 191 kts 226°
2026-05-05 23:54 43.74369 -79.56285 2039 ft 187 kts 227°
2026-05-05 23:55 43.73510 -79.57537 1803 ft 172 kts 228°
2026-05-05 23:55 43.72736 -79.58662 1579 ft 152 kts 228°
2026-05-05 23:55 43.72034 -79.59686 1369 ft 143 kts 229°
2026-05-05 23:55 43.71360 -79.60667 1168 ft 139 kts 229°
2026-05-05 23:56 43.70692 -79.61639 988 ft 140 kts 229°
2026-05-05 23:56 43.70020 -79.62615 807 ft 140 kts 229°
2026-05-05 23:56 43.69356 -79.63591 627 ft 139 kts 230°
2026-05-05 23:56 43.68728 -79.64505 568 ft 114 kts 226°
2026-05-05 23:57 43.68315 -79.65100 571 ft 60 kts 226°
2026-05-05 23:57 43.68134 -79.65356 565 ft 26 kts 224°
2026-05-05 23:57 43.68004 -79.65450 564 ft 21 kts 197°
2026-05-05 23:57 43.67905 -79.65490 565 ft 0 kts 190°
2026-05-05 23:58 43.67897 -79.65491 565 ft 5 kts 184°
2026-05-05 23:58 43.67847 -79.65455 566 ft 8 kts 131°
2026-05-05 23:58 43.67842 -79.65395 563 ft 6 kts 72°
2026-05-05 23:58 43.67870 -79.65343 566 ft 10 kts 47°
2026-05-05 23:59 43.67930 -79.65254 567 ft 13 kts 46°
2026-05-05 23:59 43.67989 -79.65170 567 ft 12 kts 47°
2026-05-05 23:59 43.68049 -79.65082 572 ft 15 kts 46°
2026-05-05 23:59 43.68115 -79.64990 568 ft 12 kts 46°
2026-05-06 00:00 43.68181 -79.64892 571 ft 19 kts 46°
2026-05-06 00:00 43.68282 -79.64747 572 ft 21 kts 45°
2026-05-06 00:00 43.68392 -79.64589 570 ft 25 kts 47°
2026-05-06 00:00 43.68513 -79.64409 566 ft 27 kts 45°
2026-05-06 00:01 43.68640 -79.64227 571 ft 23 kts 45°
2026-05-06 00:01 43.68746 -79.64072 573 ft 22 kts 44°
2026-05-06 00:01 43.68814 -79.63977 572 ft 8 kts 47°
2026-05-06 00:01 43.68857 -79.63909 572 ft 11 kts 50°
2026-05-06 00:02 43.68914 -79.63819 573 ft 14 kts 43°
2026-05-06 00:02 43.68990 -79.63724 572 ft 16 kts 43°
2026-05-06 00:02 43.69031 -79.63623 568 ft 11 kts 107°
2026-05-06 00:02 43.68977 -79.63539 569 ft 13 kts 135°
2026-05-06 00:03 43.68907 -79.63448 566 ft 14 kts 135°
2026-05-06 00:03 43.68827 -79.63340 563 ft 18 kts 135°
2026-05-06 00:03 43.68727 -79.63210 568 ft 21 kts 140°
2026-05-06 00:03 43.68613 -79.63064 566 ft 23 kts 137°
2026-05-06 00:04 43.68493 -79.62910 563 ft 25 kts 135°
2026-05-06 00:04 43.68362 -79.62736 572 ft 26 kts 138°
2026-05-06 00:04 43.68226 -79.62563 568 ft 27 kts 137°
2026-05-06 00:04 43.68085 -79.62384 569 ft 28 kts 137°
2026-05-06 00:05 43.67919 -79.62118 565 ft 10 kts 83°
2026-05-06 00:05 43.67964 -79.62029 564 ft 12 kts 51°
2026-05-06 00:05 43.68007 -79.61926 570 ft 13 kts 52°
2026-05-06 00:06 43.68055 -79.61836 569 ft 10 kts 52°
2026-05-06 00:06 43.68094 -79.61777 569 ft 7 kts 46°
2026-05-06 00:06 43.68117 -79.61706 566 ft 7 kts 90°
2026-05-06 00:06 43.68105 -79.61657 570 ft 4 kts 127°
2026-05-06 00:07 43.68092 -79.61638 563 ft 3 kts 135°
2026-05-06 00:07 43.68076 -79.61616 565 ft 1 kts 136°
2026-05-06 00:07 43.68068 -79.61606 562 ft 1 kts 137°
2026-05-06 00:07 43.68066 -79.61604 562 ft 0 kts 137°